sat.trackr.live / text

‹ back to catalog

STARLINK-34132

NORAD 64086 · 2025-107Y

PAYLOAD ACTIVE UNKNOWN

§ Identity

Operator
Country
US
Launch date
2025-05-21
Launch site
AFETR
Launch vehicle
Mass (kg)
RCS (m²)

Purposes: comms

External: N2YO · Heavens-Above · Gunter

§ Orbital elements

Epoch: 2026-05-25T05:25:57.415008Z

Period
94.27 min
Inclination
42.9995°
Eccentricity
0.0001218
Mean motion
15.27582393 rev/d
Perigee alt
482.2 km
Apogee alt
483.9 km
Semi-major
6,861.2 km
B*
8.2376e-4
RAAN
129.4863°
Arg perigee
263.4194°
Mean anomaly
96.6519°
Rev number
5,779

§ Raw data

STARLINK-341321 64086U 25107Y   26145.22635897  .00022477  00000+0  82376-3 0  99992 64086  42.9995 129.4863 0001218 263.4194  96.6519 15.27582393 57797

JSON: /api/v1/satellites/64086 · /tle

For live sub-satellite position, see the globe view (requires WebGL).

§ Visibility from observer

Set your observer location to see the next 7 days of passes ≥ 10°. The values pass through the URL so the page stays shareable.

No JS? Fill the form by hand. The geolocation button needs JavaScript.